| time (UTC) | temp F | wind direction | speed MPH | gust MPH | rain 1hr in | rain 24hr in | rain mn in | humidity % | barometer mb |
| 20260504221534 | 67 | 252 | 6.0 | 10.0 | 0.00 | 0.00 | 0.00 | 35 | 1004.8 |
| 20260504220031 | 68 | 241 | 4.0 | 6.0 | 0.00 | 0.00 | 0.00 | 37 | 1005.0 |
| 20260504214531 | 68 | 322 | 1.0 | 6.0 | 0.00 | 0.00 | 0.00 | 37 | 1004.9 |
| 20260504213042 | 68 | 245 | 3.0 | 12.0 | 0.00 | 0.00 | 0.00 | 35 | 1005.0 |
| 20260504211533 | 67 | 240 | 3.0 | 9.0 | 0.00 | 0.00 | 0.00 | 37 | 1004.9 |
| 20260504210027 | 68 | 263 | 4.0 | 9.0 | 0.00 | 0.00 | 0.00 | 37 | 1004.8 |
| 20260504204536 | 69 | 255 | 8.0 | 15.0 | 0.00 | 0.00 | 0.00 | 35 | 1004.6 |
| 20260504203025 | 67 | 236 | 6.0 | 13.0 | 0.00 | 0.00 | 0.00 | 37 | 1004.6 |
| 20260504201521 | 67 | 248 | 6.0 | 12.0 | 0.00 | 0.00 | 0.00 | 38 | 1004.7 |
| 20260504200023 | 67 | 241 | 5.0 | 10.0 | 0.00 | 0.00 | 0.00 | 37 | 1004.8 |
| 20260504194519 | 67 | 251 | 8.0 | 15.0 | 0.00 | 0.00 | 0.00 | 37 | 1004.9 |
| 20260504193018 | 67 | 251 | 4.0 | 11.0 | 0.00 | 0.00 | 0.00 | 37 | 1004.9 |
| 20260504191515 | 67 | 165 | 5.0 | 11.0 | 0.00 | 0.00 | 0.00 | 36 | 1005.1 |
| 20260504190015 | 67 | 240 | 6.0 | 19.0 | 0.00 | 0.00 | 0.00 | 37 | 1005.2 |
| 20260504184510 | 65 | 247 | 4.0 | 13.0 | 0.00 | 0.00 | 0.00 | 36 | 1005.2 |
| 20260504183010 | 65 | 264 | 6.0 | 19.0 | 0.00 | 0.00 | 0.00 | 36 | 1005.2 |
| 20260504181512 | 65 | 244 | 3.0 | 13.0 | 0.00 | 0.00 | 0.00 | 37 | 1005.1 |
| 20260504180008 | 65 | 264 | 6.0 | 16.0 | 0.00 | 0.00 | 0.00 | 36 | 1005.2 |
| 20260504174505 | 65 | 262 | 7.0 | 14.0 | 0.00 | 0.00 | 0.00 | 36 | 1005.4 |
| 20260504173003 | 65 | 258 | 11.0 | 19.0 | 0.00 | 0.00 | 0.00 | 35 | 1005.6 |
| 20260504171503 | 65 | 251 | 9.0 | 19.0 | 0.00 | 0.00 | 0.00 | 37 | 1005.6 |
| 20260504081529 | 42 | 257 | 0.0 | 0.0 | 0.00 | 0.01 | 0.00 | 73 | 1008.6 |
| 20260504050004 | 35 | 39 | 0.0 | 0.0 | 0.00 | 0.01 | 0.00 | 86 | 1008.6 |
| 20260504044505 | 36 | 39 | 0.0 | 0.0 | 0.00 | 0.01 | 0.00 | 83 | 1008.6 |
| 20260504043100 | 36 | 39 | 0.0 | 0.0 | 0.00 | 0.01 | 0.00 | 83 | 1008.6 |
| 20260504041557 | 37 | 39 | 0.0 | 0.0 | 0.00 | 0.01 | 0.00 | 80 | 1008.6 |
| 20260504040105 | 37 | 39 | 0.0 | 0.0 | 0.00 | 0.01 | 0.00 | 77 | 1008.5 |
| 20260504034611 | 38 | 39 | 0.0 | 1.0 | 0.00 | 0.01 | 0.01 | 78 | 1008.4 |
| 20260504033050 | 38 | 39 | 0.0 | 1.0 | 0.00 | 0.01 | 0.01 | 79 | 1008.4 |
| 20260504031547 | 39 | 11 | 0.0 | 1.0 | 0.00 | 0.01 | 0.01 | 77 | 1008.1 |
| 20260504024549 | 39 | 271 | 0.0 | 2.0 | 0.00 | 0.01 | 0.01 | 76 | 1008.1 |
| 20260504023042 | 40 | 346 | 0.0 | 0.0 | 0.00 | 0.01 | 0.01 | 74 | 1008.1 |
| 20260504021544 | 41 | 268 | 0.0 | 5.0 | 0.00 | 0.01 | 0.01 | 70 | 1008.1 |
| 20260504020040 | 42 | 270 | 0.0 | 4.0 | 0.00 | 0.01 | 0.01 | 67 | 1008.0 |
| 20260504014539 | 43 | 255 | 0.0 | 3.0 | 0.00 | 0.02 | 0.01 | 66 | 1008.1 |
| 20260504013048 | 42 | 258 | 0.0 | 0.0 | 0.00 | 0.02 | 0.01 | 63 | 1008.0 |
| 20260504011541 | 43 | 258 | 0.0 | 1.0 | 0.00 | 0.02 | 0.01 | 60 | 1007.9 |
| 20260504010040 | 45 | 257 | 0.0 | 3.0 | 0.00 | 0.02 | 0.01 | 57 | 1007.8 |
| 20260504004538 | 46 | 250 | 2.0 | 4.0 | 0.00 | 0.09 | 0.01 | 57 | 1007.6 |
| 20260504003038 | 46 | 248 | 1.0 | 5.0 | 0.00 | 0.09 | 0.01 | 59 | 1007.2 |
| 20260504001543 | 46 | 252 | 1.0 | 3.0 | 0.00 | 0.09 | 0.01 | 57 | 1007.2 |
| 20260504000037 | 47 | 251 | 1.0 | 4.0 | 0.00 | 0.09 | 0.01 | 57 | 1006.9 |
| 20260503234536 | 47 | 248 | 1.0 | 6.0 | 0.00 | 0.13 | 0.01 | 54 | 1006.7 |
| 20260503233039 | 47 | 278 | 0.0 | 8.0 | 0.00 | 0.13 | 0.01 | 51 | 1006.6 |
| 20260503231536 | 47 | 335 | 0.0 | 7.0 | 0.00 | 0.13 | 0.01 | 50 | 1006.5 |
| 20260503230034 | 48 | 319 | 1.0 | 8.0 | 0.00 | 0.13 | 0.01 | 48 | 1006.3 |
| 20260503224533 | 48 | 99 | 0.0 | 10.0 | 0.00 | 0.14 | 0.01 | 47 | 1006.2 |
| 20260503223031 | 48 | 30 | 2.0 | 11.0 | 0.00 | 0.14 | 0.01 | 47 | 1006.1 |